Regional Weather Roundup
Issued by NWS Green Bay, WI

Home | Current Version | Previous Version | Graphics & Text | Print | Product List | Glossary Off
Versions: 1 2 3 4 5 6 7 8 9 10 11 12 13 14 15 16 17 18 19 20 21 22 23 24 25 26 27 28 29 30 31 32 33 34 35 36 37 38 39 40 41 42 43 44 45 46 47 48 49 50

000
ASUS43 KGRB 022310
RWRGRB

NORTH-CENTRAL AND NORTHEAST WISCONSIN REGIONAL WEATHER ROUNDUP
NATIONAL WEATHER SERVICE GREEN BAY WI
600 PM CDT SAT MAY 02 2015

WIZ005-009-010>012-018-019-030000-
NORTH CENTRAL WISCONSIN

CITY           SKY/WX    TMP DP  RH WIND       PRES   REMARKS
IRONWOOD       MOSUNNY   75  39  27 S5        29.77S
MANITOWISH WTR MOSUNNY   72  42  34 SW12G17   29.83S
ARBOR VITAE    MOSUNNY   74  40  28 W6G17     29.84S
EAGLE RIVER    MOSUNNY   73  34  23 SW9       29.84S
LAND O LAKES   PTSUNNY   74  32  21 SW3       29.84F
RHINELANDER    MOSUNNY   74  42  31 SW10      29.86S
PHILLIPS       MOSUNNY   73  41  31 SW9       29.83S
ANTIGO         MOSUNNY   73  41  32 SW10G17   29.87S
TOMAHAWK       MOSUNNY   73  38  27 CALM      29.85S
MERRILL        MOSUNNY   74  41  30 SW10      29.85S
$$

WIZ013-073-030000-
NORTHEAST WISCONSIN

CITY           SKY/WX    TMP DP  RH WIND       PRES   REMARKS
IRON MOUNTAIN  MOSUNNY   75  38  26 W7        29.82S
MARINETTE      MOSUNNY   70  43  37 S13G18    29.84R
OCONTO         PTSUNNY   77  41  27 SW13G18   29.84S
$$

WIZ017-030-035>037-045-030000-
CENTRAL WISCONSIN

CITY           SKY/WX    TMP DP  RH WIND       PRES   REMARKS
MEDFORD        MOSUNNY   74  42  31 SW10      29.85S
WAUSAU         CLOUDY    76  40  27 SW13      29.84S
MOSINEE        MOSUNNY   73  39  29 SW8       29.87S
MARSHFIELD     MOSUNNY   77  39  25 W10       29.85S
WISC RAPIDS    MOSUNNY   77  35  21 W14       29.87S
STEVENS POINT  MOSUNNY   75  39  27 SW13      29.86S
WAUPACA        MOSUNNY   78  37  22 S13G18    29.86S
SHAWANO        MOSUNNY   79  36  21 W12G18    29.85S
CLINTONVILLE   MOSUNNY   79  36  21 W8        29.85S
$$

WIZ038-039-048-051-030000-
FOX VALLEY

CITY           SKY/WX    TMP DP  RH WIND       PRES   REMARKS
NWS GREEN BAY  MOSUNNY   77  42  28 SW13      29.86S
APPLETON       MOSUNNY   75  37  25 SW17      29.88S
OSHKOSH        SUNNY     76  42  29 SW12G18   29.88S
FOND DU LAC    SUNNY     76  41  28 SW12      29.89S
$$

WIZ022-050-052-030000-
EAST CENTRAL WISCONSIN

CITY           SKY/WX    TMP DP  RH WIND       PRES   REMARKS
STURGEON BAY   MOSUNNY   63  37  39 S18G24    29.90S
MANITOWOC      SUNNY     63  37  38 S20       29.91S
SHEBOYGAN      MOSUNNY   66  38  35 S15G22    29.92S
$$

LMZ563-521-522-541>543-030000-
LAKESHORE

STATION/POSITION TIME  TEMP    WIND        PRES    VSBY  WAVE
                       AIR SEA DIR/SP/G                  HT/PER
                 (UTC) (F)     (DEG/KT/KT) (MB)    (MI)  (FT/S)
SHEBOYGAN LKSHOR 2300   52     180/ 21/ 22 1013.3F
KEWAUNEE LKSHORE 2300   49     180/ 15/ 17 1011.8F
NORTHPORT PIER   2300   57     160/ 10/ 18 1011.5F
CHAMBERS ISLAND  2300   66     150/  6/ 15 1011.2S
MENOMINEE LKSHOR 2300   58     160/ 11/ 15 1011.4R
$$



USA.gov is the U.S. government's official web portal to all federal, state and local government web resources and services.